Welcome to the New NWS' Forecast!
Most changes are behind the scenes, but click here for differences you might notice.

Regional Weather Roundup (RWR)

Issued by National Weather Service (NWS)

                            
000
ASUS42 KTBW 150716
RWRFL 
FLORIDA REGIONAL WEATHER ROUNDUP
NATIONAL WEATHER SERVICE TAMPA BAY RUSKIN FL
200 AM EST THU NOV 15 2018

NOTE: "FAIR" INDICATES FEW OR NO CLOUDS BELOW 12,000 FEET WITH NO
SIGNIFICANT WEATHER AND/OR OBSTRUCTIONS TO VISIBILITY.

FLZ001>010-012>015-112-114-115-150800-
PANHANDLE FLORIDA
  
CITY           SKY/WX    TMP DP  RH WIND       PRES   REMARKS
PENSACOLA      CLOUDY    40  37  89 N9        30.16F WCI  34          
CRESTVIEW      CLOUDY    41  38  89 NW12      30.20R WCI  34          
DUKE FIELD     CLOUDY    41  39  93 NW10      30.17R WCI  35          
VALPARAISO     CLOUDY    42  40  94 N8        30.15S WCI  36          
MARY ESTHER    CLOUDY    41  40  95 N14G20    30.13F WCI  34          
PANAMA CITY    LGT RAIN  46  43  89 NW13      30.12F WCI  40          
TYNDALL AFB    LGT RAIN  48  46  93 N7        30.12F                  
APALACHICOLA   LGT RAIN  53  51  93 NW15      30.09R                  

STATION/POSITION SKY/WX   TEMP    WIND        PRES    WAVE   SWELL
                          AIR SEA DIR/SP/G            HT/PER HT/PER
                          (F)     (DEG/KT/KT) (MB)    (FT/S) (FT/S)
30.1N   87.6W              44                 1022.8F   3/ 5
29.2N   88.2W                 77  320/ 17/ 25 1023.2R   5/ 6
PANAMA CITY BEAC           46 70  350/ 10/ 13 1020.7
TOWER C                    59     320/ 16/ 17 1018.5R

$$
FLZ011-016>038-118-127-128-134-139-239-150800-
NORTH FLORIDA
  
CITY           SKY/WX    TMP DP  RH WIND       PRES   REMARKS
MARIANNA       LGT RAIN  59  46  62 NW14      30.12R                  
TALLAHASSEE    LGT RAIN  56  56 100 CALM      30.04F                  
PERRY          DRIZZLE   57  56  97 N7        30.05F                  
LIVE OAK       CLOUDY    54  54 100 N8        30.03S FOG              
CROSS CITY     CLOUDY    57  56  97 N9        30.01F                  
LAKE CITY      CLOUDY    54  54 100 NW10G21   30.03R                  
GAINESVILLE    CLOUDY    59  57  93 NW13G25   30.00S                  
WILLISTON        N/A    N/A N/A N/A MISG        N/A                   
MAYPORT NAS    RAIN      70  70 100 N10       29.93F FOG              
JACKSONVILLE   RAIN      66  65  96 N12       29.94S FOG              
JAX NAS        CLOUDY    70  70 100 N7        29.94F                  
JAX CECIL      DRIZZLE   63  63 100 VRB7      29.96R                  
FERNANDINA BEA LGT RAIN  66  65  97 N9        29.94F FOG              
ST AUGUSTINE   CLOUDY    73  72  96 S7        29.93F                  
PALM COAST     FAIR      74  73  96 S8        29.93F                  

STATION/POSITION SKY/WX   TEMP    WIND        PRES    WAVE   SWELL
                          AIR SEA DIR/SP/G            HT/PER HT/PER
                          (F)     (DEG/KT/KT) (MB)    (FT/S) (FT/S)
SHELL POINT      NOT AVBL
KEATON BEACH               56     350/  7/ 11 1017.0F
CEDAR KEY                  59     360/ 13/ 16 1015.2F
FERNANDINA                    71   10/  5/ 15 1014.7F
30.7N   81.3W                 71                N/A     8/ 8   2/11
MAYPORT                    69 71   30/ 11/ 14 1014.1F
31.4N   80.9W              65 71  190/ 10/ 16 1012.7F   9/ 8   8/ 8
ST AUGUSTINE               76 73  180/ 11/ 13 1013.1F

$$
FLZ040-043>046-052-053-057-058-063-144-150800-
INTERIOR CENTRAL FLORIDA
  
CITY           SKY/WX    TMP DP  RH WIND       PRES   REMARKS
OCALA          LGT RAIN  63  61  94 NW10      29.98R                  
LEESBURG       FAIR      73  73 100 S8        29.95F                  
SANFORD        FAIR      75  74  96 S7        29.94F                  
ORLANDO EXEC   MOCLDY    75  74  96 S9        29.94F                  
ORLANDO INTL   CLOUDY    75  74  96 S10       29.95F                  
KISSIMMEE      FAIR      74  72  93 S7        29.96F                  
WINTER HAVEN   FAIR      76  67  73 S8        29.96F                  
LAKELAND       MOCLDY    72  68  88 S6        29.96F                  
BARTOW         CLOUDY    72  70  94 S7        29.94F                  
SEBRING        PTSUNNY   76  73  90 S6        29.96F                  
OKEECHOBEE     CLOUDY    77  73  88 S5        29.97F                  

$$
FLZ041-047-054-059-064-141-147-150800-
EAST CENTRAL FLORIDA
  
CITY           SKY/WX    TMP DP  RH WIND       PRES   REMARKS
DAYTONA BEACH  FAIR      76  76 100 S9        29.93F                  
DELAND         MOCLDY    75  73  94 S9        29.93F                  
JFK SPACE CTR  FAIR      77  73  88 S10       29.95S                  
CAPE CANAVERAL FAIR      78  74  88 S12G20    29.94F                  
PATRICK AFB    FAIR      77  77 100 S13       29.96F                  
MELBOURNE      FAIR      77  73  87 S7        29.96F                  
VERO BEACH     FAIR      76  73  91 S7        29.96F                  
FT PIERCE      FAIR      75  72  90 S3        29.96F                  
STUART         FAIR      73  72  94 CALM      29.98F                  

STATION/POSITION SKY/WX   TEMP    WIND        PRES    WAVE   SWELL
                          AIR SEA DIR/SP/G            HT/PER HT/PER
                          (F)     (DEG/KT/KT) (MB)    (FT/S) (FT/S)
28.5N   80.2W              78     200/ 14/ 19 1014.8F   4/ 8   3/ 8
28.9N   78.5W              80 82  140/ 17/ 21 1015.5F
TRIDENT PIER               78 80  180/ 12/ 16 1015.9F
28.4N   80.5W                 79                N/A     3/ 4
27.5N   80.2W                 80                N/A     3/ 4

$$
FLZ050-056-061-142-242-148-248-149-249-151-251-155-255-
160-260-150800-
WEST CENTRAL FLORIDA
  
CITY           SKY/WX    TMP DP  RH WIND       PRES   REMARKS
CRYSTAL RIVER  CLOUDY    63  61  94 NW8       29.98S                  
BROOKSVILLE    CLOUDY    68  67  96 NW10      29.97S                  
CLEARWATER AIR CLOUDY    68  64  88 NW13G23   29.99R                  
ST PETE CLEARW CLOUDY    69  68  96 NW14      29.98S                  
TAMPA INTL     CLOUDY    69  67  93 NW12      29.98                   
TAMPA EXEC     HVY RAIN  70  68  94 NW6       29.98R                  
PLANT CITY     MOCLDY    73  70  88 SE3       29.97F                  
MACDILL AFB    CLOUDY    70  67  92 NW8G17    29.97S                  
PETER O KNIGHT CLOUDY   N/A N/A N/A NW10G16   29.98R                  
ST PETERSBURG  CLOUDY    70  68  93 NW15      29.96R                  
SARASOTA       HVY RAIN  72  70  93 N13       29.96S FOG              
VENICE         LGT RAIN  73  73 100 NW17G26   29.98R                  

STATION/POSITION SKY/WX   TEMP    WIND        PRES    WAVE   SWELL
                          AIR SEA DIR/SP/G            HT/PER HT/PER
                          (F)     (DEG/KT/KT) (MB)    (FT/S) (FT/S)
CLEARWATER BEACH           71 79  320/ 21/ 24 1015.8R
MIDDLE TAMPA BAY           71     340/ 15/ 17 1015.1R
VENICE                     73 80  330/ 22/ 24 1014.9R

$$
FLZ066-069-070-075>078-162-262-165-265-150800-
SOUTHWEST FLORIDA AND KEYS
  
CITY           SKY/WX    TMP DP  RH WIND       PRES   REMARKS
PUNTA GORDA    FAIR      72  71  97 S6        29.98F                  
FT MYERS       FAIR      74  74 100 S3        29.96S                  
SOUTHWEST INTL FAIR      72  72 100 S3        29.96F                  
NAPLES         FAIR      75  73  93 E5        29.96F                  
MARCO ISLAND   FAIR      75  74  96 CALM      29.97F                  
IMMOKALEE      MOCLDY    72  70  94 CALM      29.97F FOG              
MARATHON       FAIR      80  75  84 SE5       29.95F                  
KEY WEST INTL  FAIR      83  74  74 SE10      29.96F                  

STATION/POSITION SKY/WX   TEMP    WIND        PRES    WAVE   SWELL
                          AIR SEA DIR/SP/G            HT/PER HT/PER
                          (F)     (DEG/KT/KT) (MB)    (FT/S) (FT/S)
NAPLES                     77 81              1014.7F
26.0N   85.6W              72 81  350/ 17/ 21 1018.3F  10/ 8   7/ 8
DRY TORTUGAS               81     130/  4/  4 1014.4F
SAND KEY                   81                 1014.2F
SOMBRERO KEY               81     120/ 12/ 14 1013.8F
LONG KEY                   81 82  130/ 10/ 11 1014.6F
MOLASSES REEF              81 82  120/  8/ 10 1014.6F

$$
FLZ067-068-071>074-168-172>174-150800-
SOUTHEAST FLORIDA 
  
CITY           SKY/WX    TMP DP  RH WIND       PRES   REMARKS
W PALM BEACH   FAIR      77  75  93 SE9       29.97F                  
FT LAUDER-EXEC FAIR      80  75  84 SE7       29.96F                  
FT LAUDERDALE  MOCLDY    79  77  94 VRB6      29.96F                  
POMPANO BEACH  FAIR      81  74  79 SE10      29.97F                  
PEMBROKE PINES FAIR      80  76  87 CALM      29.98F                  
OPA LOCKA      FAIR      77  75  93 SE5       29.97F                  
MIAMI          MOCLDY    80  76  87 SE9       29.96F                  
WEST KENDALL   FAIR      77  75  93 CALM      29.96F                  
HOMESTEAD      MOCLDY    77  75  94 CALM      29.95F                  

STATION/POSITION SKY/WX   TEMP    WIND        PRES    WAVE   SWELL
                          AIR SEA DIR/SP/G            HT/PER HT/PER
                          (F)     (DEG/KT/KT) (MB)    (FT/S) (FT/S)
PORT EVERGLADES            81     140/ 12/ 15 1014.8F
VIRGINIA KEY               81 83  120/  8/ 13 1014.6F
LAKE WORTH                 81 81  160/ 13/ 15 1016.0F
FOWEY ROCKS                81 81  120/ 15/ 17 1015.0F
SETTLEMENT POINT           78     130/  6/  8 1015.3F

$$